Time,TemperatureF,DewpointF,PressureIn,WindDirection,WindDirectionDegrees,WindSpeedMPH,WindSpeedGustMPH,Humidity,HourlyPrecipIn,Conditions,Clouds,dailyrainin,SoftwareType,DateUTC
2013-04-19 00:12:00,58.6,58.0,29.45,South,180,3.7,-999.0,98,-99.99,,,0.02,Acu-Link.com,2013-04-19 04:12:00,
2013-04-19 00:27:00,58.5,57.9,29.45,South,180,2.2,-999.0,98,-99.99,,,0.04,Acu-Link.com,2013-04-19 04:27:00,
2013-04-19 00:42:00,58.3,58.0,29.42,ESE,112,2.7,-999.0,99,-99.99,,,0.08,Acu-Link.com,2013-04-19 04:42:00,
2013-04-19 00:57:00,57.9,57.6,29.41,South,180,2.2,-999.0,99,-99.99,,,0.12,Acu-Link.com,2013-04-19 04:57:00,
2013-04-19 01:13:00,57.9,57.6,29.43,SSE,157,5.3,-999.0,99,-99.99,,,0.14,Acu-Link.com,2013-04-19 05:13:00,
2013-04-19 01:28:00,57.7,57.4,29.42,SSE,157,3.2,-999.0,99,-99.99,,,0.30,Acu-Link.com,2013-04-19 05:28:00,
2013-04-19 01:43:00,57.6,57.3,29.40,ESE,112,3.2,-999.0,99,-99.99,,,0.31,Acu-Link.com,2013-04-19 05:43:00,
2013-04-19 01:58:00,57.7,57.4,29.39,SE,135,4.7,-999.0,99,-99.99,,,0.32,Acu-Link.com,2013-04-19 05:58:00,
2013-04-19 02:13:00,57.7,57.4,29.37,SSE,157,3.2,-999.0,99,-99.99,,,0.35,Acu-Link.com,2013-04-19 06:13:00,
2013-04-19 02:28:00,57.9,57.6,29.36,South,180,2.7,-999.0,99,-99.99,,,0.38,Acu-Link.com,2013-04-19 06:28:00,
2013-04-19 02:43:00,58.5,58.2,29.35,South,180,3.7,-999.0,99,-99.99,,,0.46,Acu-Link.com,2013-04-19 06:43:00,
2013-04-19 02:59:00,58.5,58.2,29.33,South,180,5.3,-999.0,99,-99.99,,,0.53,Acu-Link.com,2013-04-19 06:59:00,
2013-04-19 03:14:00,58.6,58.3,29.33,South,180,4.7,-999.0,99,-99.99,,,0.58,Acu-Link.com,2013-04-19 07:14:00,
2013-04-19 03:29:00,58.6,58.3,29.32,SE,135,3.7,-999.0,99,-99.99,,,0.64,Acu-Link.com,2013-04-19 07:29:00,
2013-04-19 03:44:00,58.6,58.3,29.30,SE,135,2.2,-999.0,99,-99.99,,,0.70,Acu-Link.com,2013-04-19 07:44:00,
2013-04-19 03:59:00,58.3,58.0,29.29,ESE,112,4.7,-999.0,99,-99.99,,,0.71,Acu-Link.com,2013-04-19 07:59:00,
2013-04-19 04:14:00,57.9,57.3,29.27,South,180,2.7,-999.0,98,-99.99,,,0.75,Acu-Link.com,2013-04-19 08:14:00,
2013-04-19 04:29:00,57.6,57.3,29.26,SSE,157,2.7,-999.0,99,-99.99,,,0.76,Acu-Link.com,2013-04-19 08:29:00,
2013-04-19 04:44:00,57.4,57.1,29.24,SE,135,3.2,-999.0,99,-99.99,,,0.76,Acu-Link.com,2013-04-19 08:44:00,
2013-04-19 04:59:00,57.6,57.3,29.24,WSW,247,3.7,-999.0,99,-99.99,,,0.80,Acu-Link.com,2013-04-19 08:59:00,
2013-04-19 05:15:00,57.7,57.4,29.24,South,180,4.7,-999.0,99,-99.99,,,0.86,Acu-Link.com,2013-04-19 09:15:00,
2013-04-19 05:30:00,51.6,50.5,29.26,WSW,247,7.3,-999.0,96,-99.99,,,0.92,Acu-Link.com,2013-04-19 09:30:00,
2013-04-19 05:45:00,47.5,47.0,29.25,West,270,10.4,-999.0,98,-99.99,,,0.98,Acu-Link.com,2013-04-19 09:45:00,
2013-04-19 06:00:00,46.0,45.7,29.27,West,270,7.8,-999.0,99,-99.99,,,1.04,Acu-Link.com,2013-04-19 10:00:00,
2013-04-19 06:15:00,44.8,44.0,29.28,NW,315,11.4,-999.0,97,-99.99,,,1.07,Acu-Link.com,2013-04-19 10:15:00,
2013-04-19 06:30:00,44.1,43.6,29.26,East,90,7.8,-999.0,98,-99.99,,,1.08,Acu-Link.com,2013-04-19 10:30:00,
2013-04-19 06:45:00,43.3,42.8,29.27,South,180,4.2,-999.0,98,-99.99,,,1.09,Acu-Link.com,2013-04-19 10:45:00,
2013-04-19 07:00:00,42.8,42.3,29.29,SSE,157,4.2,-999.0,98,-99.99,,,1.10,Acu-Link.com,2013-04-19 11:00:00,
2013-04-19 07:16:00,42.4,41.9,29.29,WSW,247,6.3,-999.0,98,-99.99,,,1.12,Acu-Link.com,2013-04-19 11:16:00,
2013-04-19 07:31:00,41.9,41.6,29.30,SW,225,7.8,-999.0,99,-99.99,,,1.12,Acu-Link.com,2013-04-19 11:31:00,
2013-04-19 07:46:00,41.4,40.6,29.30,SW,225,7.8,-999.0,97,-99.99,,,1.12,Acu-Link.com,2013-04-19 11:46:00,
2013-04-19 08:01:00,41.2,40.7,29.30,WNW,292,4.2,-999.0,98,-99.99,,,1.12,Acu-Link.com,2013-04-19 12:01:00,
2013-04-19 08:16:00,40.6,39.8,29.30,West,270,4.7,-999.0,97,-99.99,,,1.13,Acu-Link.com,2013-04-19 12:16:00,
2013-04-19 08:31:00,39.9,38.9,29.31,SSE,157,8.3,-999.0,96,-99.99,,,1.13,Acu-Link.com,2013-04-19 12:31:00,
2013-04-19 08:46:00,39.6,38.0,29.31,SSE,157,6.8,-999.0,94,-99.99,,,1.13,Acu-Link.com,2013-04-19 12:46:00,
2013-04-19 09:02:00,39.4,37.8,29.32,WNW,292,8.3,-999.0,94,-99.99,,,1.14,Acu-Link.com,2013-04-19 13:02:00,
2013-04-19 09:17:00,39.2,37.6,29.32,WNW,292,2.7,-999.0,94,-99.99,,,1.14,Acu-Link.com,2013-04-19 13:17:00,
2013-04-19 09:32:00,39.2,37.6,29.32,WSW,247,7.3,-999.0,94,-99.99,,,1.14,Acu-Link.com,2013-04-19 13:32:00,
2013-04-19 09:47:00,39.6,37.5,29.32,West,270,4.7,-999.0,92,-99.99,,,1.14,Acu-Link.com,2013-04-19 13:47:00,
2013-04-19 10:02:00,39.4,36.7,29.32,SW,225,5.8,-999.0,90,-99.99,,,1.14,Acu-Link.com,2013-04-19 14:02:00,
2013-04-19 10:17:00,39.4,36.1,29.32,SW,225,9.9,-999.0,88,-99.99,,,1.14,Acu-Link.com,2013-04-19 14:17:00,
2013-04-19 10:33:00,39.4,35.6,29.33,SSW,202,8.9,-999.0,86,-99.99,,,1.14,Acu-Link.com,2013-04-19 14:33:00,
2013-04-19 10:48:00,39.2,35.7,29.33,ENE,67,5.3,-999.0,87,-99.99,,,1.14,Acu-Link.com,2013-04-19 14:48:00,
2013-04-19 11:03:00,39.0,34.6,29.34,West,270,13.0,-999.0,84,-99.99,,,1.14,Acu-Link.com,2013-04-19 15:03:00,
2013-04-19 11:18:00,39.7,34.7,29.35,WNW,292,10.9,-999.0,82,-99.99,,,1.14,Acu-Link.com,2013-04-19 15:18:00,
2013-04-19 11:33:00,40.3,34.0,29.35,West,270,10.9,-999.0,78,-99.99,,,1.14,Acu-Link.com,2013-04-19 15:33:00,
2013-04-19 11:48:00,41.4,34.7,29.36,SSE,157,6.3,-999.0,77,-99.99,,,1.14,Acu-Link.com,2013-04-19 15:48:00,
2013-04-19 12:03:00,41.2,33.6,29.37,NNW,337,9.9,-999.0,74,-99.99,,,1.14,Acu-Link.com,2013-04-19 16:03:00,
2013-04-19 12:18:00,40.3,32.7,29.37,South,180,10.4,-999.0,74,-99.99,,,1.14,Acu-Link.com,2013-04-19 16:18:00,
2013-04-19 12:34:00,39.7,32.1,29.38,WSW,247,5.3,-999.0,74,-99.99,,,1.14,Acu-Link.com,2013-04-19 16:34:00,
2013-04-19 12:49:00,39.9,31.6,29.37,South,180,6.8,-999.0,72,-99.99,,,1.14,Acu-Link.com,2013-04-19 16:49:00,
2013-04-19 13:04:00,40.1,31.8,29.36,SSE,157,6.3,-999.0,72,-99.99,,,1.14,Acu-Link.com,2013-04-19 17:04:00,
2013-04-19 13:19:00,40.8,32.5,29.37,West,270,11.4,-999.0,72,-99.99,,,1.14,Acu-Link.com,2013-04-19 17:19:00,
2013-04-19 13:34:00,41.0,32.0,29.37,West,270,9.9,-999.0,70,-99.99,,,1.14,Acu-Link.com,2013-04-19 17:34:00,
2013-04-19 13:49:00,40.6,31.9,29.37,SSE,157,9.4,-999.0,71,-99.99,,,1.14,Acu-Link.com,2013-04-19 17:49:00,
2013-04-19 14:04:00,40.5,32.5,29.38,West,270,6.3,-999.0,73,-99.99,,,1.14,Acu-Link.com,2013-04-19 18:04:00,
2013-04-19 14:20:00,40.1,31.8,29.38,West,270,7.8,-999.0,72,-99.99,,,1.14,Acu-Link.com,2013-04-19 18:20:00,
2013-04-19 14:35:00,41.2,31.8,29.39,SSE,157,8.9,-999.0,69,-99.99,,,1.14,Acu-Link.com,2013-04-19 18:35:00,
2013-04-19 14:50:00,41.2,30.7,29.39,SSE,157,14.0,-999.0,66,-99.99,,,1.14,Acu-Link.com,2013-04-19 18:50:00,
2013-04-19 15:05:00,40.8,31.1,29.40,WSW,247,12.5,-999.0,68,-99.99,,,1.14,Acu-Link.com,2013-04-19 19:05:00,
2013-04-19 15:20:00,40.5,30.4,29.41,WSW,247,13.5,-999.0,67,-99.99,,,1.14,Acu-Link.com,2013-04-19 19:20:00,
2013-04-19 15:35:00,40.5,31.1,29.41,South,180,10.4,-999.0,69,-99.99,,,1.14,Acu-Link.com,2013-04-19 19:35:00,
2013-04-19 15:50:00,40.1,30.8,29.43,West,270,6.3,-999.0,69,-99.99,,,1.16,Acu-Link.com,2013-04-19 19:50:00,
2013-04-19 16:05:00,40.1,31.1,29.43,WSW,247,7.8,-999.0,70,-99.99,,,1.16,Acu-Link.com,2013-04-19 20:05:00,
2013-04-19 16:21:00,41.4,30.9,29.42,South,180,12.5,-999.0,66,-99.99,,,1.16,Acu-Link.com,2013-04-19 20:21:00,
2013-04-19 16:36:00,40.6,30.5,29.43,West,270,9.9,-999.0,67,-99.99,,,1.16,Acu-Link.com,2013-04-19 20:36:00,
2013-04-19 16:51:00,42.6,32.1,29.44,South,180,7.8,-999.0,66,-99.99,,,1.16,Acu-Link.com,2013-04-19 20:51:00,
2013-04-19 17:06:00,41.4,30.5,29.44,SSE,157,7.8,-999.0,65,-99.99,,,1.16,Acu-Link.com,2013-04-19 21:06:00,
2013-04-19 17:21:00,40.5,30.4,29.46,East,90,14.0,-999.0,67,-99.99,,,1.16,Acu-Link.com,2013-04-19 21:21:00,
2013-04-19 17:36:00,40.5,31.8,29.48,SW,225,6.8,-999.0,71,-99.99,,,1.16,Acu-Link.com,2013-04-19 21:36:00,
2013-04-19 17:51:00,39.9,31.3,29.48,SSE,157,9.4,-999.0,71,-99.99,,,1.16,Acu-Link.com,2013-04-19 21:51:00,
2013-04-19 18:06:00,41.2,31.5,29.49,South,180,5.8,-999.0,68,-99.99,,,1.16,Acu-Link.com,2013-04-19 22:06:00,
2013-04-19 18:22:00,41.5,31.4,29.49,West,270,6.3,-999.0,67,-99.99,,,1.16,Acu-Link.com,2013-04-19 22:22:00,
2013-04-19 18:37:00,40.1,31.1,29.50,West,270,12.5,-999.0,70,-99.99,,,1.16,Acu-Link.com,2013-04-19 22:37:00,
2013-04-19 18:52:00,39.0,32.1,29.52,SSE,157,10.9,-999.0,76,-99.99,,,1.16,Acu-Link.com,2013-04-19 22:52:00,
2013-04-19 19:07:00,39.2,31.6,29.52,South,180,8.3,-999.0,74,-99.99,,,1.16,Acu-Link.com,2013-04-19 23:07:00,
2013-04-19 19:22:00,39.2,31.3,29.53,SSW,202,13.0,-999.0,73,-99.99,,,1.16,Acu-Link.com,2013-04-19 23:22:00,
2013-04-19 19:37:00,39.2,31.3,29.53,South,180,5.3,-999.0,73,-99.99,,,1.16,Acu-Link.com,2013-04-19 23:37:00,
2013-04-19 19:52:00,38.3,32.1,29.54,West,270,7.3,-999.0,78,-99.99,,,1.16,Acu-Link.com,2013-04-19 23:52:00,
2013-04-19 20:08:00,37.4,32.7,29.55,SSE,157,7.3,-999.0,83,-99.99,,,1.16,Acu-Link.com,2013-04-20 00:08:00,
2013-04-19 20:23:00,37.2,32.8,29.55,South,180,6.8,-999.0,84,-99.99,,,1.16,Acu-Link.com,2013-04-20 00:23:00,
2013-04-19 20:38:00,36.1,33.2,29.57,SSE,157,7.8,-999.0,89,-99.99,,,1.16,Acu-Link.com,2013-04-20 00:38:00,
2013-04-19 20:53:00,35.4,33.6,29.57,SSE,157,4.2,-999.0,93,-99.99,,,1.16,Acu-Link.com,2013-04-20 00:53:00,
2013-04-19 21:08:00,35.2,33.6,29.58,SSW,202,7.3,-999.0,94,-99.99,,,1.16,Acu-Link.com,2013-04-20 01:08:00,
2013-04-19 21:23:00,35.6,33.5,29.58,South,180,3.2,-999.0,92,-99.99,,,1.16,Acu-Link.com,2013-04-20 01:23:00,
2013-04-19 21:38:00,32.7,31.9,29.60,SW,225,6.3,-999.0,97,-99.99,,,1.16,Acu-Link.com,2013-04-20 01:38:00,
2013-04-19 21:53:00,32.2,32.0,29.61,West,270,5.3,-999.0,99,-99.99,,,1.16,Acu-Link.com,2013-04-20 01:53:00,
2013-04-19 22:08:00,32.0,31.2,29.61,WSW,247,3.7,-999.0,97,-99.99,,,1.16,Acu-Link.com,2013-04-20 02:08:00,
2013-04-19 22:24:00,32.2,31.2,29.61,SW,225,5.3,-999.0,96,-99.99,,,1.16,Acu-Link.com,2013-04-20 02:24:00,
2013-04-19 22:39:00,32.4,31.1,29.61,SW,225,4.2,-999.0,95,-99.99,,,1.16,Acu-Link.com,2013-04-20 02:39:00,
2013-04-19 22:54:00,32.4,31.1,29.62,SW,225,4.2,-999.0,95,-99.99,,,1.16,Acu-Link.com,2013-04-20 02:54:00,
2013-04-19 23:09:00,32.5,31.2,29.61,SSW,202,5.8,-999.0,95,-99.99,,,1.16,Acu-Link.com,2013-04-20 03:09:00,
2013-04-19 23:24:00,32.7,31.2,29.62,WSW,247,5.8,-999.0,94,-99.99,,,1.16,Acu-Link.com,2013-04-20 03:24:00,
2013-04-19 23:39:00,32.9,31.1,29.62,West,270,7.8,-999.0,93,-99.99,,,1.16,Acu-Link.com,2013-04-20 03:39:00,
2013-04-19 23:55:00,32.9,31.1,29.62,WNW,292,3.2,-999.0,93,-99.99,,,1.16,Acu-Link.com,2013-04-20 03:55:00,